Weather History for Naples, FL

Change the Weather History Date:

Tuesday, December 4, 2012

  Actual Average Record
Temperature  
Mean Temperature 70 °F 68 °F  
Max Temperature 81 °F 78 °F 87 °F (1994)
Min Temperature 58 °F 59 °F 37 °F (1989)
Degree Days  
Heating Degree Days 0 1  
Month to date heating degree days 0 4  
Since 1 July heating degree days 13 18  
Cooling Degree Days 5 5  
Month to date cooling degree days 26 20  
Year to date cooling degree days 3992 3839  
Growing Degree Days 19 (Base 50)    
Moisture  
Dew Point 59 °F    
Average Humidity 73    
Maximum Humidity 100    
Minimum Humidity 45    
Precipitation  
Precipitation 0.00 in 0.05 in 1.67 in (1997)
Month to date precipitation 0.00 0.17  
Year to date precipitation 36.15 50.61  
Snow  
Snow 0.00 in - - ()
Month to date snowfall 0.0  
Since 1 July snowfall 0.0  
Snow Depth 0.00 in    
Sea Level Pressure  
Sea Level Pressure 30.19 in    
Wind  
Wind Speed 7 mph (NE)    
Max Wind Speed 16 mph    
Max Gust Speed 21 mph    
Visibility 10 miles    
Events      
T = Trace of Precipitation, MM = Missing Value Source: NWS Daily Summary

Daily Weather History Graph

Daily Weather History Graph

Search for Another Location

Airport:

Trip Planner

Search our weather history database for the weather conditions in past years. The results will help you decide how hot, cold, wet, or windy it might be!

Date:

Astronomy

Dec. 04, 2012 Rise Set
Actual Time 6:59 AM EST 5:35 PM EST
Civil Twilight 6:34 AM EST 6:00 PM EST
Nautical Twilight 6:06 AM EST 6:28 PM EST
Astronomical Twilight 5:38 AM EST 6:56 PM EST
Moon 10:59 PM EST (12/4) 11:12 AM EST (12/4)
Length of Visible Light 11h 25m
Length of Day
10h 35m
Waning Gibbous, 69% of the Moon is Illuminated
Dec 4
Waning Gibbous
Dec 6
Last Quarter
Dec 13
New
Dec 20
First Quarter
Dec 28
Full

Hourly Weather History & Observations

Time (EST) Temp. Heat Index Dew Point Humidity Pressure Visibility Wind Dir Wind Speed Gust Speed Precip Events Conditions
12:53 AM 59.0 °F - 55.0 °F 87% 30.20 in 10.0 mi NNE 3.5 mph - N/A   Clear
1:53 AM 60.1 °F - 55.9 °F 86% 30.19 in 10.0 mi NNE 3.5 mph - N/A   Scattered Clouds
2:53 AM 59.0 °F - 55.9 °F 90% 30.19 in 10.0 mi NE 4.6 mph - N/A   Clear
3:53 AM 59.0 °F - 57.0 °F 93% 30.19 in 10.0 mi Calm Calm - N/A   Clear
4:53 AM 57.9 °F - 57.0 °F 97% 30.19 in 10.0 mi NE 4.6 mph - N/A   Clear
5:53 AM 59.0 °F - 57.9 °F 96% 30.19 in 10.0 mi NE 5.8 mph - N/A   Partly Cloudy
6:53 AM 60.1 °F - 59.0 °F 96% 30.20 in 10.0 mi NE 4.6 mph - N/A   Clear
7:53 AM 63.0 °F - 60.1 °F 90% 30.22 in 10.0 mi NE 5.8 mph - N/A   Clear
8:53 AM 69.1 °F - 59.0 °F 70% 30.22 in 10.0 mi NE 8.1 mph - N/A   Clear
9:53 AM 73.0 °F - 59.0 °F 61% 30.24 in 10.0 mi NE 9.2 mph - N/A   Scattered Clouds
10:53 AM 75.9 °F - 61.0 °F 60% 30.24 in 10.0 mi ENE 11.5 mph - N/A   Mostly Cloudy
11:53 AM 77.0 °F - 61.0 °F 58% 30.22 in 10.0 mi East 11.5 mph - N/A   Mostly Cloudy
12:53 PM 80.1 °F 80.4 °F 57.0 °F 45% 30.17 in 10.0 mi ENE 12.7 mph - N/A   Scattered Clouds
1:53 PM 81.0 °F 81.1 °F 57.9 °F 45% 30.15 in 10.0 mi East 11.5 mph - N/A   Mostly Cloudy
2:53 PM 78.1 °F - 59.0 °F 52% 30.14 in 10.0 mi ENE 11.5 mph - N/A   Overcast
3:53 PM 75.0 °F - 60.1 °F 60% 30.15 in 10.0 mi East 6.9 mph - N/A   Mostly Cloudy
4:53 PM 75.0 °F - 60.1 °F 60% 30.16 in 10.0 mi NE 4.6 mph - N/A   Overcast
5:53 PM 73.0 °F - 63.0 °F 71% 30.16 in 10.0 mi NE 6.9 mph - N/A   Overcast
6:53 PM 71.1 °F - 62.1 °F 73% 30.17 in 10.0 mi ENE 8.1 mph - N/A   Mostly Cloudy
7:53 PM 68.0 °F - 60.1 °F 76% 30.18 in 10.0 mi ENE 6.9 mph - N/A   Scattered Clouds
8:53 PM 66.9 °F - 57.9 °F 73% 30.18 in 10.0 mi ENE 5.8 mph - N/A   Scattered Clouds
9:53 PM 66.9 °F - 57.0 °F 70% 30.17 in 10.0 mi NE 6.9 mph - N/A   Overcast
10:53 PM 64.9 °F - 57.0 °F 75% 30.16 in 10.0 mi NE 4.6 mph - N/A   Overcast
11:53 PM 64.0 °F - 57.0 °F 78% 30.17 in 10.0 mi NE 4.6 mph - N/A   Mostly Cloudy